User: anonymous   Login
Location: Eschertshofen
(49.3064°N, 11.5756°E)
Time: 11:43:15
(UTC+00:00)
Language:

SL-14 R/B - Orbit

View from above orbital plane
View from above orbital plane
View from above satellite
View from above satellite

Ground track
Ground track

The orbit data is extracted from the following two-line orbital elements,

1 33505U 09003B   20330.04403992  .00000805  00000-0  47376-4 0  9991
2 33505  82.3864  72.3181 0026700 182.1149 177.9972 15.09931800650517
Epoch (UTC): 25 November 2020 01:03:25
Eccentricity: 0.0026700
inclination: 82.3864°
perigee height: 518 km
apogee height: 555 km
right ascension of ascending node: 72.3181°
argument of perigee: 182.1149°
revolutions per day: 15.09931800
mean anomaly at epoch: 177.9972°
orbit number at epoch: 65051

The dashed part of the orbit path shows where the satellite is in the earth's shadow,  

DLR